When you browse on this site, cookies collect data to enhance your experience and personalize the content and advertising you see.
Visit our Privacy Policy to learn more. By continuing to use the site, you agree to this use of cookies and data.
  • In Czech Republic
  • List of Countries
  • For 7 days
  • Water Temperature
  • Satellite Maps
  • Weather Map
  • Weather Widgets
  • user-avatar
    Login

    Hourly Weather Kobyakovo

    Today, 19 February, Tuesday

    Time Temperature Precipitation Wind Pressure Humidity
    00:00 -12°C° 0 mm 2 mps 748 mmHg 92%
    01:00 -10°C° 0 mm 1 mps 749 mmHg 92%
    02:00 -11°C° 0 mm 1 mps 748 mmHg 93%
    03:00 -11°C° 0 mm 1 mps 748 mmHg 92%
    04:00 -11°C° 0 mm 1 mps 749 mmHg 92%
    05:00 -11°C° 0 mm 1 mps 749 mmHg 92%
    06:00 -13°C° 0 mm 2 mps 749 mmHg 92%
    07:00 -12°C° 0 mm 2 mps 749 mmHg 92%
    08:00 -13°C° 0 mm 3 mps 749 mmHg 91%
    09:00 -10°C° 0 mm 3 mps 748 mmHg 90%
    10:00 -10°C° 0 mm 4 mps 748 mmHg 89%
    11:00 -8°C° 0 mm 4 mps 748 mmHg 88%
    12:00 -8°C° 0 mm 5 mps 747 mmHg 88%
    13:00 -7°C° 0 mm 5 mps 747 mmHg 87%
    14:00 -6°C° 0 mm 5 mps 746 mmHg 87%
    15:00 -7°C° 0 mm 5 mps 746 mmHg 88%
    16:00 -7°C° 0 mm 5 mps 746 mmHg 88%
    17:00 -7°C° 0 mm 5 mps 745 mmHg 89%
    18:00 -8°C° 0 mm 5 mps 745 mmHg 89%
    19:00 -8°C° 0 mm 5 mps 744 mmHg 89%
    20:00 -8°C° 0 mm 5 mps 744 mmHg 89%
    21:00 -9°C° 0 mm 6 mps 743 mmHg 88%
    22:00 -9°C° 0 mm 6 mps 743 mmHg 86%
    23:00 -9°C° 0 mm 6 mps 742 mmHg 85%

    Tomorrow, 20 February, Wednesday

    Time Temperature Precipitation Wind Pressure Humidity
    00:00 -9°C° 0 mm 6 mps 742 mmHg 85%
    01:00 -9°C° 0 mm 7 mps 741 mmHg 86%
    02:00 -9°C° 0 mm 7 mps 741 mmHg 87%
    03:00 -9°C° 0 mm 7 mps 740 mmHg 87%
    04:00 -8°C° 0 mm 7 mps 739 mmHg 88%
    05:00 -8°C° 0 mm 7 mps 738 mmHg 88%
    06:00 -8°C° 0 mm 7 mps 738 mmHg 90%
    07:00 -7°C° 0 mm 7 mps 738 mmHg 91%
    08:00 -6°C° 0 mm 7 mps 737 mmHg 92%
    09:00 -6°C° 0.1 mm 7 mps 737 mmHg 92%
    10:00 -4°C° 0.1 mm 7 mps 737 mmHg 93%
    11:00 -4°C° 0.1 mm 7 mps 737 mmHg 93%
    12:00 -3°C° 0.2 mm 6 mps 736 mmHg 93%
    13:00 -3°C° 0.2 mm 6 mps 736 mmHg 94%
    14:00 -2°C° 0.2 mm 6 mps 736 mmHg 95%
    15:00 -2°C° 0 mm 6 mps 736 mmHg 94%
    16:00 -2°C° 0 mm 6 mps 736 mmHg 94%
    17:00 -1°C° 0 mm 5 mps 736 mmHg 93%
    18:00 -1°C° 0.1 mm 5 mps 736 mmHg 93%
    19:00 -1°C° 0.1 mm 5 mps 736 mmHg 93%
    20:00 -1°C° 0.1 mm 5 mps 736 mmHg 94%
    21:00 -2°C° 0 mm 6 mps 735 mmHg 93%
    22:00 -2°C° 0 mm 6 mps 735 mmHg 93%
    23:00 -3°C° 0 mm 6 mps 734 mmHg 93%

    Day after tomorrow, 21 February, Thursday

    Time Temperature Precipitation Wind Pressure Humidity
    00:00 -2°C° 0.2 mm 6 mps 734 mmHg 92%
    01:00 -2°C° 0.2 mm 6 mps 733 mmHg 92%
    02:00 -2°C° 0.2 mm 7 mps 733 mmHg 92%
    03:00 -2°C° 0.3 mm 7 mps 733 mmHg 91%
    04:00 -3°C° 0.3 mm 7 mps 732 mmHg 91%
    05:00 -3°C° 0.3 mm 7 mps 732 mmHg 91%
    06:00 -5°C° 0.1 mm 6 mps 732 mmHg 90%
    07:00 -7°C° 0.1 mm 5 mps 732 mmHg 90%
    08:00 -10°C° 0.1 mm 5 mps 732 mmHg 90%
    09:00 -8°C° 0.3 mm 6 mps 732 mmHg 90%
    10:00 -6°C° 0.3 mm 6 mps 733 mmHg 91%
    11:00 -6°C° 0.3 mm 7 mps 733 mmHg 91%
    12:00 -6°C° 0.3 mm 7 mps 733 mmHg 89%
    13:00 -6°C° 0.3 mm 7 mps 733 mmHg 88%
    14:00 -6°C° 0.3 mm 8 mps 734 mmHg 86%
    15:00 -7°C° 0.1 mm 7 mps 734 mmHg 86%
    16:00 -8°C° 0.1 mm 6 mps 734 mmHg 85%
    17:00 -8°C° 0.1 mm 6 mps 735 mmHg 84%
    18:00 -8°C° 0 mm 6 mps 735 mmHg 85%
    19:00 -9°C° 0 mm 6 mps 735 mmHg 87%
    20:00 -9°C° 0 mm 6 mps 736 mmHg 88%
    21:00 -9°C° 0.1 mm 7 mps 736 mmHg 88%
    22:00 -9°C° 0.1 mm 7 mps 737 mmHg 88%
    23:00 -9°C° 0.1 mm 7 mps 737 mmHg 88%

    22 February, Friday

    Time Temperature Precipitation Wind Pressure Humidity
    00:00 -11°C° 0.1 mm 7 mps 738 mmHg 87%
    01:00 -12°C° 0.1 mm 7 mps 738 mmHg 87%
    02:00 -11°C° 0.1 mm 6 mps 739 mmHg 86%
    03:00 -12°C° 0.1 mm 6 mps 739 mmHg 86%
    04:00 -12°C° 0.1 mm 6 mps 740 mmHg 86%
    05:00 -14°C° 0.1 mm 6 mps 740 mmHg 86%
    06:00 -15°C° 0 mm 7 mps 741 mmHg 85%
    07:00 -15°C° 0 mm 7 mps 741 mmHg 84%
    08:00 -17°C° 0 mm 7 mps 742 mmHg 83%
    09:00 -17°C° 0 mm 7 mps 743 mmHg 82%
    10:00 -17°C° 0 mm 8 mps 743 mmHg 81%
    11:00 -16°C° 0 mm 8 mps 743 mmHg 80%
    12:00 -16°C° 0 mm 8 mps 744 mmHg 80%
    13:00 -16°C° 0 mm 8 mps 744 mmHg 79%
    14:00 -15°C° 0 mm 8 mps 744 mmHg 78%
    15:00 -15°C° 0 mm 7 mps 744 mmHg 80%
    16:00 -14°C° 0 mm 5 mps 744 mmHg 82%
    17:00 -15°C° 0 mm 4 mps 745 mmHg 84%
    18:00 -15°C° 0 mm 4 mps 745 mmHg 85%
    19:00 -16°C° 0 mm 4 mps 745 mmHg 86%
    20:00 -16°C° 0 mm 4 mps 746 mmHg 87%
    21:00 -16°C° 0 mm 4 mps 746 mmHg 88%
    22:00 -16°C° 0 mm 4 mps 746 mmHg 89%
    23:00 -16°C° 0 mm 4 mps 747 mmHg 91%

    23 February, Saturday

    Time Temperature Precipitation Wind Pressure Humidity
    00:00 -17°C° 0 mm 4 mps 747 mmHg 90%
    01:00 -17°C° 0 mm 4 mps 748 mmHg 90%
    02:00 -19°C° 0 mm 5 mps 748 mmHg 89%
    03:00 -18°C° 0 mm 5 mps 749 mmHg 89%
    04:00 -18°C° 0 mm 5 mps 749 mmHg 90%
    05:00 -18°C° 0 mm 5 mps 749 mmHg 90%
    06:00 -18°C° 0 mm 5 mps 750 mmHg 91%
    07:00 -18°C° 0 mm 4 mps 750 mmHg 91%
    08:00 -18°C° 0 mm 4 mps 750 mmHg 92%
    09:00 -17°C° 0 mm 4 mps 751 mmHg 90%
    10:00 -18°C° 0 mm 5 mps 751 mmHg 89%
    11:00 -17°C° 0 mm 5 mps 751 mmHg 87%
    12:00 -15°C° 0 mm 5 mps 751 mmHg 87%
    13:00 -15°C° 0 mm 4 mps 751 mmHg 86%
    14:00 -15°C° 0 mm 4 mps 752 mmHg 86%
    15:00 -15°C° 0 mm 4 mps 752 mmHg 87%
    16:00 -14°C° 0 mm 3 mps 752 mmHg 89%
    17:00 -14°C° 0 mm 3 mps 752 mmHg 90%
    18:00 -14°C° 0 mm 3 mps 753 mmHg 92%
    19:00 -14°C° 0 mm 3 mps 753 mmHg 93%
    20:00 -14°C° 0 mm 3 mps 753 mmHg 94%
    21:00 -14°C° 0 mm 3 mps 754 mmHg 94%
    22:00 -15°C° 0 mm 3 mps 754 mmHg 95%
    23:00 -15°C° 0 mm 3 mps 754 mmHg 95%

    24 February, Sunday

    Time Temperature Precipitation Wind Pressure Humidity
    00:00 -15°C° 0 mm 3 mps 754 mmHg 95%
    01:00 -15°C° 0 mm 3 mps 754 mmHg 95%
    02:00 -16°C° 0 mm 3 mps 755 mmHg 95%
    03:00 -16°C° 0 mm 3 mps 755 mmHg 95%
    04:00 -17°C° 0 mm 3 mps 755 mmHg 95%
    05:00 -18°C° 0 mm 3 mps 755 mmHg 94%
    06:00 -18°C° 0 mm 3 mps 755 mmHg 93%
    07:00 -19°C° 0 mm 3 mps 755 mmHg 93%
    08:00 -19°C° 0 mm 3 mps 756 mmHg 92%
    09:00 -18°C° 0 mm 3 mps 756 mmHg 89%
    10:00 -17°C° 0 mm 3 mps 756 mmHg 87%
    11:00 -15°C° 0 mm 3 mps 757 mmHg 85%
    12:00 -14°C° 0 mm 2 mps 756 mmHg 84%
    13:00 -13°C° 0 mm 2 mps 756 mmHg 84%
    14:00 -12°C° 0 mm 2 mps 756 mmHg 84%
    15:00 -13°C° 0 mm 2 mps 756 mmHg 85%
    16:00 -14°C° 0 mm 2 mps 756 mmHg 87%
    17:00 -13°C° 0 mm 1 mps 756 mmHg 89%
    18:00 -13°C° 0 mm 1 mps 756 mmHg 88%
    19:00 -13°C° 0 mm 1 mps 756 mmHg 87%
    20:00 -14°C° 0 mm 1 mps 757 mmHg 86%
    21:00 -14°C° 0 mm 1 mps 757 mmHg 85%
    22:00 -14°C° 0 mm 1 mps 756 mmHg 85%
    23:00 -14°C° 0 mm 1 mps 756 mmHg 84%
    Show more